Hourly Data Report for October 15, 2016

All times are specified in Local Standard Time (LST). Add 1 hour to adjust for Daylight Saving Time where and when it is observed.

GJOA HAVEN A
NUNAVUT

68°38'08.000" N
95°51'01.000" W
46.90 m
2302337
71597
YHK

Download Data

Hourly Data (October 2016)
Hourly Data Report for October 15, 2016
Temp Definition
°C
Dew Point Temp Definition
°C
Rel Hum Definition
%
Wind Dir Definition
10's deg

Wind Spd Definition
km/h
Visibility Definition
km
Stn Press Definition
kPa
Hmdx Definition


Wind Chill Definition


Weather Definition


TIME
00:00 Legend Double Dagger -8.8 -9.5 95 26 13 16.1 100.18   -15 LegendNANA
01:00 Legend Double Dagger -8.5 -9.2 95 23 13 16.1 100.16   -14 Snow
02:00 Legend Double Dagger -7.1 -7.6 96 23 28 14.5 100.12   -15 Snow
03:00 Legend Double Dagger -7.3 -7.8 96 24 28 16.1 100.12   -16 Snow
04:00 Legend Double Dagger -7.4 -7.9 96 26 21 16.1 100.12   -15 Snow
05:00 Legend Double Dagger -8.9 -9.6 95 28 9 16.1 100.11   -14 LegendNANA
06:00 Legend Double Dagger -8.8 -9.6 94 29 11 16.1 100.11   -14 Snow
07:00 Legend Double Dagger -10.4 -11.3 93 31 15 1.6 100.11   -17 Snow
08:00 Legend Double Dagger -10.1 -10.9 94 31 11 4.8 100.12   -16 Snow
09:00 Legend Double Dagger -9.8 -10.6 94 27 5 12.9 100.12   -13 Snow
10:00 Legend Double Dagger -7.5 -8.2 95 24 32 11.3 100.10   -17 Snow
11:00 Legend Double Dagger -7.3 -8.4 92 24 35 16.1 100.09   -17 LegendNANA
12:00 Legend Double Dagger -7.8 -8.7 93 24 35 16.1 100.09   -17 Snow
13:00 Legend Double Dagger -7.7 -8.5 94 24 37 14.5 100.09   -17 LegendNANA
14:00 Legend Double Dagger -6.8 -7.8 93 23 39 2.4 100.04   -16 Snow
15:00 Legend Double Dagger -6.9 -7.9 93 24 39 1.2 100.03   -17 Snow
16:00 Legend Double Dagger -7.3 -8.2 94 24 45 4.0 100.03   -18 Snow
17:00 Legend Double Dagger -7.8 -8.6 94 23 41 6.4 100.04   -18 Snow
18:00 Legend Double Dagger -7.5 -8.3 94 23 43 6.4 100.05   -18 Snow
19:00 Legend Double Dagger -6.9 -7.9 93 23 39 6.4 100.04   -17 Snow
20:00 Legend Double Dagger -7.0 -7.8 94 24 39 6.4 100.05   -17 Snow
21:00 Legend Double Dagger -7.1 -7.9 94 24 43 4.8 100.05   -17 Snow
22:00 Legend Double Dagger -6.3 -7.1 94 24 45 3.2 100.06   -16 Snow
23:00 Legend Double Dagger -6.5 -7.3 94 27 24 2.8 100.12   -14 Snow

Notes on Data Quality.

Legend

  • E = Estimated
  • M = Missing
  • NA = Not Available
  • ‡ = Partner data that is not subject to review by the National Climate Archives
Date modified: